Time,TemperatureF,DewpointF,PressureIn,WindDirection,WindDirectionDegrees,WindSpeedMPH,WindSpeedGustMPH,Humidity,HourlyPrecipIn,Conditions,Clouds,dailyrainin,SoftwareType,DateUTC
2013-10-14 00:00:00,42.4,40.0,30.39,South,169,0.0,0.0,91,0.00,,,0.00,Wunderground v.1.15,2013-10-14 04:00:00,
2013-10-14 00:30:00,42.1,39.7,30.39,South,169,0.0,0.0,91,0.00,,,0.00,Wunderground v.1.15,2013-10-14 04:30:00,
2013-10-14 01:00:00,41.1,38.7,30.39,South,169,0.0,0.0,91,0.00,,,0.00,Wunderground v.1.15,2013-10-14 05:00:00,
2013-10-14 01:30:00,40.6,38.2,30.39,South,169,0.0,0.0,91,0.00,,,0.00,Wunderground v.1.15,2013-10-14 05:30:00,
2013-10-14 02:00:00,40.3,38.2,30.38,South,181,0.0,0.0,92,0.00,,,0.00,Wunderground v.1.15,2013-10-14 06:00:00,
2013-10-14 02:30:00,40.0,37.9,30.38,South,181,0.0,0.0,92,0.00,,,0.00,Wunderground v.1.15,2013-10-14 06:30:00,
2013-10-14 03:00:00,39.3,37.2,30.37,South,181,0.0,0.0,92,0.00,,,0.00,Wunderground v.1.15,2013-10-14 07:00:00,
2013-10-14 03:30:00,38.6,36.5,30.37,South,181,0.0,0.0,92,0.00,,,0.00,Wunderground v.1.15,2013-10-14 07:30:00,
2013-10-14 04:00:00,38.3,36.2,30.36,South,181,0.0,0.0,92,0.00,,,0.00,Wunderground v.1.15,2013-10-14 08:00:00,
2013-10-14 04:30:00,39.5,37.6,30.36,SW,229,0.0,0.0,93,0.00,,,0.00,Wunderground v.1.15,2013-10-14 08:30:00,
2013-10-14 05:00:00,38.7,36.6,30.36,SW,233,0.0,0.0,92,0.00,,,0.00,Wunderground v.1.15,2013-10-14 09:00:00,
2013-10-14 05:30:00,37.6,35.5,30.37,SW,235,0.0,0.0,92,0.00,,,0.00,Wunderground v.1.15,2013-10-14 09:30:00,
2013-10-14 06:00:00,37.7,35.9,30.37,West,264,0.0,0.0,93,0.00,,,0.00,Wunderground v.1.15,2013-10-14 10:00:00,
2013-10-14 06:30:00,38.5,36.7,30.37,West,265,0.0,0.0,93,0.00,,,0.00,Wunderground v.1.15,2013-10-14 10:30:00,
2013-10-14 07:00:00,38.8,36.9,30.37,West,261,0.0,0.0,93,0.00,,,0.01,Wunderground v.1.15,2013-10-14 11:00:00,
2013-10-14 07:30:00,38.1,36.3,30.36,West,262,0.0,0.0,93,0.00,,,0.01,Wunderground v.1.15,2013-10-14 11:30:00,
2013-10-14 08:00:00,38.8,36.9,30.38,West,261,0.0,0.0,93,0.00,,,0.01,Wunderground v.1.15,2013-10-14 12:00:00,
2013-10-14 08:30:00,40.6,38.7,30.38,West,262,0.0,0.0,93,0.00,,,0.01,Wunderground v.1.15,2013-10-14 12:30:00,
2013-10-14 09:00:00,45.9,44.0,30.38,West,262,0.0,0.0,93,0.00,,,0.01,Wunderground v.1.15,2013-10-14 13:00:00,
2013-10-14 09:30:00,50.2,48.0,30.37,West,259,0.0,0.0,92,0.00,,,0.01,Wunderground v.1.15,2013-10-14 13:30:00,
2013-10-14 10:00:00,54.0,48.6,30.37,West,266,0.0,1.0,82,0.00,,,0.01,Wunderground v.1.15,2013-10-14 14:00:00,
2013-10-14 10:30:00,57.2,47.9,30.36,West,262,0.0,1.0,71,0.00,,,0.01,Wunderground v.1.15,2013-10-14 14:30:00,
2013-10-14 11:00:00,57.3,46.8,30.35,North,354,1.0,1.0,68,0.00,,,0.01,Wunderground v.1.15,2013-10-14 15:00:00,
2013-10-14 11:30:00,59.8,45.4,30.33,West,263,1.0,1.0,59,0.00,,,0.01,Wunderground v.1.15,2013-10-14 15:30:00,
2013-10-14 12:00:00,61.2,44.9,30.32,WSW,256,1.0,1.0,55,0.00,,,0.01,Wunderground v.1.15,2013-10-14 16:00:00,
2013-10-14 12:30:00,62.5,43.6,30.31,NNE,32,1.0,1.0,50,0.00,,,0.01,Wunderground v.1.15,2013-10-14 16:30:00,
2013-10-14 13:00:00,64.5,43.3,30.29,ENE,64,1.0,1.0,46,0.00,,,0.01,Wunderground v.1.15,2013-10-14 17:00:00,
2013-10-14 13:30:00,64.3,40.1,30.28,West,260,1.0,1.0,41,0.00,,,0.01,Wunderground v.1.15,2013-10-14 17:30:00,
2013-10-14 14:00:00,64.0,39.2,30.27,West,281,1.0,1.0,40,0.00,,,0.01,Wunderground v.1.15,2013-10-14 18:00:00,
2013-10-14 14:30:00,63.5,40.6,30.26,West,262,0.0,0.0,43,0.00,,,0.01,Wunderground v.1.15,2013-10-14 18:30:00,
2013-10-14 15:00:00,63.6,41.9,30.26,SSE,163,0.0,0.0,45,0.00,,,0.01,Wunderground v.1.15,2013-10-14 19:00:00,
2013-10-14 15:30:00,63.5,46.6,30.25,SSE,147,0.0,0.0,54,0.00,,,0.01,Wunderground v.1.15,2013-10-14 19:30:00,
2013-10-14 16:00:00,62.5,49.7,30.25,NW,322,0.0,0.0,63,0.00,,,0.01,Wunderground v.1.15,2013-10-14 20:00:00,
2013-10-14 16:30:00,61.6,50.9,30.24,ESE,117,0.0,1.0,68,0.00,,,0.01,Wunderground v.1.15,2013-10-14 20:30:00,
2013-10-14 17:00:00,59.9,50.1,30.25,NNE,32,0.0,0.0,70,0.00,,,0.01,Wunderground v.1.15,2013-10-14 21:00:00,
2013-10-14 17:30:00,58.6,50.3,30.25,NNE,13,0.0,0.0,74,0.00,,,0.01,Wunderground v.1.15,2013-10-14 21:30:00,
2013-10-14 18:00:00,57.4,49.9,30.25,NE,37,0.0,0.0,76,0.00,,,0.01,Wunderground v.1.15,2013-10-14 22:00:00,
2013-10-14 18:30:00,55.9,49.8,30.26,NE,37,0.0,0.0,80,0.00,,,0.01,Wunderground v.1.15,2013-10-14 22:30:00,
2013-10-14 19:00:00,54.3,48.9,30.26,NE,37,0.0,0.0,82,0.00,,,0.01,Wunderground v.1.15,2013-10-14 23:00:00,
2013-10-14 19:30:00,53.0,48.3,30.26,NE,37,0.0,0.0,84,0.00,,,0.01,Wunderground v.1.15,2013-10-14 23:30:00,
2013-10-14 20:00:00,52.5,48.1,30.27,NE,37,0.0,0.0,85,0.00,,,0.01,Wunderground v.1.15,2013-10-15 00:00:00,
2013-10-14 20:30:00,51.8,47.7,30.27,NE,37,0.0,0.0,86,0.00,,,0.01,Wunderground v.1.15,2013-10-15 00:30:00,
2013-10-14 21:00:00,52.3,48.5,30.26,NE,37,0.0,0.0,87,0.00,,,0.01,Wunderground v.1.15,2013-10-15 01:00:00,
2013-10-14 21:30:00,52.6,47.9,30.25,NE,37,0.0,0.0,84,0.00,,,0.01,Wunderground v.1.15,2013-10-15 01:30:00,
2013-10-14 22:00:00,54.6,46.1,30.26,West,262,0.0,0.0,73,0.00,,,0.01,Wunderground v.1.15,2013-10-15 02:00:00,
2013-10-14 22:30:00,54.6,46.5,30.26,West,270,0.0,0.0,74,0.00,,,0.01,Wunderground v.1.15,2013-10-15 02:30:00,
2013-10-14 23:00:00,54.4,47.3,30.25,West,276,0.0,0.0,77,0.00,,,0.01,Wunderground v.1.15,2013-10-15 03:00:00,
2013-10-14 23:30:00,53.3,47.0,30.25,West,276,0.0,0.0,79,0.00,,,0.01,Wunderground v.1.15,2013-10-15 03:30:00,